Regional Weather Roundup
Issued by NWS

Home | Current Version | Previous Version | Graphics & Text | Print | Product List | Glossary On
Versions: 1 2 3 4 5 6 7 8 9 10 11 12 13 14 15 16 17 18 19 20 21 22 23 24 25 26 27 28 29 30 31 32 33 34 35 36 37 38 39 40 41 42 43 44 45 46 47 48 49 50
000
ASUS45 KTFX 122019
RWRMT
MONTANA HOURLY WEATHER ROUNDUP
NATIONAL WEATHER SERVICE GREAT FALLS MT
219 PM MDT SAT JUL 12 2014

NOTE: "FAIR" INDICATES FEW OR NO CLOUDS BELOW 12000 FEET WITH NO
SIGNIFICANT WEATHER AND/OR OBSTRUCTIONS TO VISIBILITY.

* THESE STATIONS ARE NOT UNDER NWS QUALITY CONTROL. THEY DO NOT
   REPORT WEATHER SUCH AS PRECIPITATION OR FOG.

MTZ001>007-043-122100-
WEST OF THE DIVIDE
CITY           SKY/WX    TMP DP  RH WIND       PRES   REMARKS
KALISPELL      SUNNY     84  52  33 CALM      30.19F
MISSOULA       PTCLDY    90  43  19 W12       30.18F
BUTTE          PTCLDY    81  43  26 NW7       30.30F
MULLAN PASS    PTCLDY    73  37  27 VRB3      30.37F
* ESSEX        N/A       85  40  20 N3         N/A
* LINCOLN      N/A       83  45  26 SE4G10     N/A
* LOOKOUT PASS N/A       80  38  22 SE6G11     N/A
* POLSON       N/A       86  50  29 NW3        N/A
* RONAN APT    SUNNY     82  52  35 N/A        N/A
* SEELEY LAKE  N/A       86  25  11 S4G10      N/A
* THOMP F APT  PTCLDY    74  51  45 SW3G9      N/A
* YAAK HILL    N/A       90  51  26 SW2        N/A
$$

MTZ008-052>055-122100-
SOUTHWEST MONTANA
CITY           SKY/WX    TMP DP  RH WIND       PRES   REMARKS
W YELLOWSTONE  PTSUNNY   77  50  39 SW7       30.37F
* THREE FORKS  SUNNY     79  50  36 N/A        N/A
* BOULDER HILL N/A       77  47  35 NE7G12     N/A
* MONIDA PASS  N/A       69  51  53 S12G17     N/A
* RAYNOLDS PAS N/A       77  35  22 N/A        N/A
* WHITEHALL    N/A       83  54  37 SE7G12     N/A
* WISE RIVER   N/A       84  45  26 NW5G10     N/A
$$

MTZ009>010-012-014-046-048-049-054-122100-
EAST SLOPES AND CENTRAL MONTANA
CITY           SKY/WX    TMP DP  RH WIND       PRES   REMARKS
CUT BANK       SUNNY     84  41  22 CALM      30.24S
GREAT FALLS    SUNNY     84  39  20 NE8       30.23F
HELENA         SUNNY     88  46  23 E7        30.21F
* CONRAD       SUNNY     84  46  26 N/A        N/A
* DEARBORN     N/A       84  51  32 VRB9       N/A
* MONARCH      N/A       77  33  20 VRB4G10    N/A
* PENDROY      N/A       83  40  22 SE4G11     N/A
* ROGERS PASS  N/A       79  44  29 SE7G13     N/A
* SAINT MARY   N/A       82  36  19 W5         N/A
* SWEET GRASS  N/A       80  49  34 E4G12      N/A
* WHITE SULPH  N/A       84  39  20 W5G15      N/A
$$

MTZ011-013-016-021-035-040-045-047-050-051-122100-
NORTH CENTRAL MONTANA
CITY           SKY/WX    TMP DP  RH WIND       PRES   REMARKS
LEWISTOWN      SUNNY     82  43  25 NW7       30.27S
* FORT BENTON  SUNNY     86  45  24 CALM      30.19F
* CHESTER      N/A       85  38  19 N6G14      N/A
* DENTON       N/A       85  41  21 W9G14      N/A
* GEYSER       N/A       83  38  20 N7G13      N/A
* JUDITH GAP   N/A       79  43  28 VRB17G23    N/A
* LOMA         N/A       85  44  24 NE4G9      N/A
$$

MTZ017>020-022>027-061-062-122100-
NORTHEAST MONTANA
CITY           SKY/WX    TMP DP  RH WIND       PRES   REMARKS
GLENDIVE       PTSUNNY   82  52  35 NW17      30.15S
JORDAN         SUNNY     86  46  25 N13G22    30.15F
SIDNEY         SUNNY     82  54  38 NW16G21   30.12F
WOLF POINT     SUNNY     86  48  27 NW14G23   30.11F
* BEAVER HILL  N/A       79  53  41 W19G24     N/A
* CIRCLE       N/A       80  55  42 NW6G14     N/A   HI  80
* LINDSAY DVD  N/A       77  52  42 NW20G26    N/A
* NAVAJO       N/A       77  48  36 NW18G26    N/A
$$

MTZ028>042-056>058-122100-
SOUTHCENTRAL AND SOUTHEAST MONTANA
CITY           SKY/WX    TMP DP  RH WIND       PRES   REMARKS
BAKER          PTCLDY    79  55  44 NW14G21   30.17S
BILLINGS       PTCLDY    82  54  38 S7        30.23F
MILES CITY     SUNNY     86  52  31 NW9G20    30.16S
* LAUREL APT   SUNNY     82  54  38 NE7        N/A
* ROUNDUP APT  SUNNY     84  41  22 N7         N/A
* ALZADA       N/A       79  59  50 NW6        N/A
* HYSHAM       N/A       85  48  28 NE4G16     N/A
* LAME DEER    N/A       75  53  46 VRB9G16    N/A
* REED POINT   N/A       88  52  29 NE3        N/A
* ROSCOE HILL  N/A       77  44  31 N7G14      N/A
$$

REGIONAL REPORTS...DAKOTAS
CITY           SKY/WX    TMP DP  RH WIND       PRES   REMARKS
WILLISTON      SUNNY     82  48  31 NW20G26   30.10S
DICKINSON      PTCLDY    79  57  47 NW9       30.11F
CROSBY         SUNNY     75  54  48 W18G25    30.06F
TIOGA          SUNNY     75  54  48 NW16G32   30.11F
WATFORD CITY   SUNNY     77  55  47 NW16G24   30.08F
BISMARCK       PTCLDY    82  57  43 NW15      30.06F HI  82
GRAND FORKS    PTSUNNY   77  55  47 W14       29.93F
FARGO          PTSUNNY   79  57  47 W16       29.98F
BUFFALO SD     SUNNY     81  59  47 N10G20    30.10S HI  81
RAPID CITY     SUNNY     75  64  69 SE5       30.16F
$$

REGIONAL REPORTS...WYOMING/IDAHO/WASHINGTON
CITY           SKY/WX    TMP DP  RH WIND       PRES   REMARKS
GILLETTE       PTCLDY    82  55  40 NW16      30.23S HI  81
SHERIDAN       PTCLDY    82  55  40 NW8       30.24F HI  81
CODY           PTCLDY    79  54  42 NE13      30.28F
YELLOWSTONE LA PTSUNNY   63  52  68 VRB3      30.49F
SALMON         PTCLDY    84  52  33 N6        30.15F
MULLAN PASS    PTCLDY    73  37  27 VRB3      30.37S
SAND POINT     SUNNY     84  52  33 CALM      30.14F
SPOKANE        PTCLDY    91  28  10 E9        30.14F
$$

REGIONAL REPORTS...ALBERTA
CITY           SKY/WX    TMP DP  RH WIND       PRES   REMARKS
CALGARY        PTSUNNY   81  45  28 E7        30.24S
LETHBRIDGE     SUNNY     79  59  50 SE8       30.22S
MEDICINE HAT   PTSUNNY   81  50  34 VRB5      30.19F
EDMONTON       SUNNY     79  52  39 VRB2      30.18F
WATERTON GATE  N/A       81  52  37 E8         N/A
CARDSTON       N/A       79  54  42 NE7        N/A
$$

REGIONAL REPORTS...SASKATCHEWAN
CITY           SKY/WX    TMP DP  RH WIND       PRES   REMARKS
SWIFT CURRENT  SUNNY     75  52  45 NW17G23   30.15S
REGINA         PTSUNNY   75  57  54 NW22      30.05S
VAL MARIE      N/A       77  48  36 NW15       N/A
ASSINIBOIA     N/A       77  50  39 NW22G28    N/A
CORONACH       N/A       79  46  31 NW18G26    N/A

$$




USA.gov is the U.S. government's official web portal to all federal, state and local government web resources and services.